User: anonymous   Login
Location: Unspecified
(0.0000°N, 0.0000°E)
Time: 05:30:19
(UTC+01:00)
Language:

GP-B - Orbit

View from above orbital plane
View from above orbital plane
View from above satellite
View from above satellite

Ground track
Ground track

The orbit data is extracted from the following two-line orbital elements,

1 28230U 04014A   17022.51309957  .00000116  00000-0  13668-4 0  9991
2 28230  89.8556 124.7802 0002284  76.2232 283.9245 14.78504971687572
Epoch (UTC): 22 January 2017 12:18:51
Eccentricity: 0.0002284
inclination: 89.8556°
perigee height: 632 km
apogee height: 635 km
right ascension of ascending node: 124.7802°
argument of perigee: 76.2232°
revolutions per day: 14.78504971
mean anomaly at epoch: 283.9245°
orbit number at epoch: 68757

The dashed part of the orbit path shows where the satellite is in the earth's shadow,  

DLR